FIN5DA EBBR-EFHK

Flight info

Callsign FIN5DA
Flight time N/A
Altitude 40000
Route NIK L191 VICOT N873 SPY DCT ALASA/N0487F410 DCT KEMAX Q44 IDPAL DCT MOVIS DCT ALAMI DCT OKEVU DCT EVADI Y370 DIVAM
Aircraft A359/H-SDE2E3GHIJ3J4J5LM1ORWXY/LB1D1

Departure

Time 2026-05-07 16:34
Airport Brussels Airport (EBBR)

Arrival

Time N/A
Airport Helsinki Vantaa Airport (EFHK)
Time Latitude Longitude Altitude Speed Heading
2026-05-07 16:01 50.90054 4.48634 136 ft 0 kts 155°
2026-05-07 16:25 50.90062 4.48628 149 ft 3 kts 155°
2026-05-07 16:26 50.90080 4.48611 148 ft 3 kts 135°
2026-05-07 16:26 50.90096 4.48574 147 ft 3 kts 105°
2026-05-07 16:26 50.90098 4.48552 146 ft 3 kts 90°
2026-05-07 16:26 50.90096 4.48520 145 ft 2 kts 69°
2026-05-07 16:27 50.90096 4.48519 145 ft 0 kts 70°
2026-05-07 16:29 50.90096 4.48520 145 ft 1 kts 70°
2026-05-07 16:30 50.90110 4.48581 146 ft 11 kts 70°
2026-05-07 16:30 50.90152 4.48721 147 ft 16 kts 62°
2026-05-07 16:30 50.90205 4.48891 147 ft 18 kts 65°
2026-05-07 16:30 50.90261 4.49087 146 ft 21 kts 66°
2026-05-07 16:31 50.90325 4.49320 144 ft 25 kts 65°
2026-05-07 16:31 50.90413 4.49563 140 ft 24 kts 33°
2026-05-07 16:31 50.90580 4.49643 128 ft 28 kts 15°
2026-05-07 16:31 50.90772 4.49726 126 ft 17 kts 14°
2026-05-07 16:32 50.90850 4.49754 119 ft 0 kts 11°
2026-05-07 16:32 50.90851 4.49754 119 ft 1 kts 11°
2026-05-07 16:32 50.90905 4.49777 116 ft 12 kts 20°
2026-05-07 16:33 50.90989 4.49857 112 ft 17 kts 33°
2026-05-07 16:33 50.91099 4.49957 110 ft 9 kts
2026-05-07 16:33 50.91136 4.49925 111 ft 5 kts 317°
2026-05-07 16:33 50.91143 4.49882 112 ft 5 kts 264°
2026-05-07 16:34 50.91065 4.49615 113 ft 57 kts 245°
2026-05-07 16:34 50.90787 4.48661 119 ft 131 kts 245°
2026-05-07 16:34 50.90315 4.47078 298 ft 178 kts 246°
2026-05-07 16:34 50.89891 4.45189 1122 ft 186 kts 263°
2026-05-07 16:35 50.90034 4.43156 2059 ft 191 kts 292°
2026-05-07 16:35 50.90961 4.41596 2628 ft 207 kts 336°
2026-05-07 16:35 50.92392 4.41095 3292 ft 218 kts 353°
2026-05-07 16:35 50.93940 4.40537 3846 ft 239 kts 342°
2026-05-07 16:36 50.95523 4.39513 4645 ft 250 kts 335°
2026-05-07 16:36 50.97078 4.38222 5564 ft 255 kts 331°
2026-05-07 16:36 50.98627 4.36787 6546 ft 260 kts 329°
2026-05-07 16:36 51.00179 4.35268 7511 ft 264 kts 327°
2026-05-07 16:37 51.01746 4.33692 8499 ft 269 kts 327°
2026-05-07 16:37 51.03339 4.32066 9498 ft 275 kts 326°
2026-05-07 16:37 51.04966 4.30397 10419 ft 283 kts 326°
2026-05-07 16:37 51.06683 4.28620 10909 ft 307 kts 326°
2026-05-07 16:38 51.08542 4.26687 11347 ft 329 kts 326°
2026-05-07 16:38 51.10498 4.24651 12072 ft 341 kts 326°
2026-05-07 16:38 51.12498 4.22569 12980 ft 346 kts 326°
2026-05-07 16:38 51.14524 4.20459 13908 ft 351 kts 326°
2026-05-07 16:39 51.16580 4.18314 14732 ft 356 kts 326°
2026-05-07 16:39 51.18645 4.16093 15525 ft 360 kts 324°
2026-05-07 16:39 51.20684 4.13729 16326 ft 365 kts 322°
2026-05-07 16:39 51.22723 4.11276 17158 ft 369 kts 322°
2026-05-07 16:40 51.24791 4.08814 18006 ft 374 kts 324°
2026-05-07 16:40 51.27084 4.06797 18793 ft 380 kts 336°
2026-05-07 16:40 51.29626 4.05523 19556 ft 386 kts 345°
2026-05-07 16:40 51.32293 4.04821 20296 ft 392 kts 352°
2026-05-07 16:41 51.35033 4.04508 21026 ft 398 kts 356°
2026-05-07 16:41 51.37815 4.04453 21758 ft 403 kts 359°
2026-05-07 16:41 51.40640 4.04548 22489 ft 408 kts
2026-05-07 16:41 51.43457 4.04708 23210 ft 413 kts
2026-05-07 16:42 51.46337 4.05075 23861 ft 419 kts
2026-05-07 16:42 51.49234 4.06144 24473 ft 425 kts 16°
2026-05-07 16:42 51.51985 4.07770 25076 ft 430 kts 20°
2026-05-07 16:42 51.54767 4.09612 25667 ft 434 kts 21°
2026-05-07 16:43 51.57549 4.11557 26281 ft 438 kts 22°
2026-05-07 16:43 51.60336 4.13584 26895 ft 442 kts 23°
2026-05-07 16:43 51.63139 4.15672 27486 ft 446 kts 24°
2026-05-07 16:43 51.65960 4.17797 28085 ft 450 kts 24°
2026-05-07 16:44 51.68809 4.19952 28655 ft 454 kts 24°
2026-05-07 16:44 51.71675 4.22120 29220 ft 457 kts 24°
2026-05-07 16:44 51.74571 4.24310 29770 ft 461 kts 24°
2026-05-07 16:44 51.77484 4.26511 30281 ft 465 kts 24°
2026-05-07 16:45 51.80428 4.28735 30734 ft 469 kts 24°
2026-05-07 16:45 51.83394 4.30977 31185 ft 472 kts 24°
2026-05-07 16:45 51.86380 4.33237 31605 ft 475 kts 24°
2026-05-07 16:45 51.89385 4.35514 32045 ft 478 kts 24°
2026-05-07 16:46 51.92369 4.37779 32474 ft 481 kts 24°
2026-05-07 16:46 51.95409 4.40091 32874 ft 484 kts 24°
2026-05-07 16:46 51.98468 4.42420 33252 ft 487 kts 24°
2026-05-07 16:46 52.01546 4.44768 33629 ft 490 kts 24°
2026-05-07 16:47 52.04642 4.47133 33968 ft 493 kts 24°
2026-05-07 16:47 52.07751 4.49512 34274 ft 495 kts 24°
2026-05-07 16:47 52.10874 4.51905 34624 ft 496 kts 24°
2026-05-07 16:47 52.13998 4.54303 35008 ft 496 kts 24°
2026-05-07 16:48 52.17118 4.56703 35370 ft 497 kts 24°
2026-05-07 16:48 52.20248 4.59113 35693 ft 498 kts 24°
2026-05-07 16:48 52.23381 4.61529 36043 ft 498 kts 24°
2026-05-07 16:48 52.26514 4.63948 36364 ft 499 kts 24°
2026-05-07 16:49 52.29659 4.66380 36687 ft 500 kts 24°
2026-05-07 16:49 52.32809 4.68820 37002 ft 501 kts 24°
2026-05-07 16:49 52.35960 4.71266 37338 ft 501 kts 24°
2026-05-07 16:49 52.39112 4.73716 37657 ft 502 kts 24°
2026-05-07 16:50 52.42230 4.76142 37963 ft 503 kts 24°
2026-05-07 16:50 52.45432 4.78639 38279 ft 503 kts 24°
2026-05-07 16:50 52.48593 4.81107 38570 ft 504 kts 24°
2026-05-07 16:50 52.51644 4.83818 38816 ft 506 kts 31°
2026-05-07 16:51 52.54473 4.87264 39039 ft 508 kts 41°
2026-05-07 16:51 52.57008 4.91310 39264 ft 508 kts 46°
2026-05-07 16:51 52.59347 4.95685 39495 ft 509 kts 50°
2026-05-07 16:51 52.61564 5.00210 39712 ft 509 kts 52°
2026-05-07 16:52 52.63742 5.04821 39929 ft 510 kts 52°
2026-05-07 16:52 52.65913 5.09449 40066 ft 511 kts 52°
2026-05-07 16:52 52.68098 5.14076 40081 ft 511 kts 52°
2026-05-07 16:53 52.72496 5.23274 40084 ft 511 kts 51°
2026-05-07 16:53 52.76922 5.32455 40080 ft 511 kts 51°
2026-05-07 16:54 52.81351 5.41654 40084 ft 512 kts 51°
2026-05-07 16:54 52.85775 5.50882 40081 ft 512 kts 51°
2026-05-07 16:55 52.90165 5.60079 40088 ft 512 kts 51°
2026-05-07 16:55 52.94574 5.69352 40093 ft 512 kts 51°
2026-05-07 16:56 52.98980 5.78652 40093 ft 513 kts 51°
2026-05-07 16:56 53.05574 5.92633 40097 ft 513 kts 52°
2026-05-07 16:57 53.09967 6.01991 40097 ft 513 kts 52°
2026-05-07 16:57 53.14356 6.11377 40097 ft 513 kts 52°
2026-05-07 16:58 53.18739 6.20782 40080 ft 514 kts 52°
2026-05-07 16:58 53.23116 6.30213 40079 ft 514 kts 52°
2026-05-07 16:59 53.27488 6.39666 40077 ft 514 kts 52°
2026-05-07 16:59 53.31856 6.49147 40077 ft 515 kts 52°
2026-05-07 17:00 53.36210 6.58631 40080 ft 515 kts 52°
2026-05-07 17:00 53.40550 6.68122 40081 ft 515 kts 52°
2026-05-07 17:01 53.44902 6.77676 40095 ft 515 kts 52°
2026-05-07 17:01 53.49245 6.87246 40095 ft 516 kts 52°
2026-05-07 17:02 53.53587 6.96852 40094 ft 516 kts 52°
2026-05-07 17:02 53.57892 7.06405 40089 ft 507 kts 53°